Location: *
(46.3500°N, 10.9000°E)
Time: 23:17:30
(UTC+00:00)

Cosmos 1943 Rocket - Pass Details

Date: 09 April 2020
Orbit: 811 x 845 km, 71.0° (Epoch: 04 June)

Event Time Altitude Azimuth Distance (km) Brightness Sun altitude
Rises 18:25:36 0° 325° (NW) 3,360 6.3 -5.7°
Reaches altitude 10° 18:28:16 10° 316° (NW) 2,428 5.8 -6.1°
Maximum altitude 18:33:05 31° 255° (WSW) 1,408 4.1 -6.9°
Drops below altitude 10° 18:37:56 10° 195° (SSW) 2,432 4.6 -7.7°
Sets 18:40:36 0° 185° (S) 3,367 5.2 -8.1°
